Showing default

KOREASAT 7, 42691

Orbit data source: Space-Track

KOREASAT 7, 42691 is a payload satellite owned by KT Sat (KR) in GEO that was launched on Thu, 04 May 2017 UTC via an ARIANE 5ECA launch vehicle from the French Guiana (FRGUI). Payload-class satellites include a variety of spacecraft equipped with specific instruments for various scientific and technological missions. These include communications satellites like Starlink; space stations such as the ISS; scientific satellites like the Hubble; Earth observation satellites from companies like Planet Labs, Umbra, and HawkEye 360; GPS; miniature CubeSats for education and research; and military/defense satellites.

Not visible in the next 10 days
Identifier
42691, 2017-023A
Orbit
GEO
Country
Flag of UnknownUnknown / SKOR
Related business
Manufacturer
Thales Alenia
Mission
Operational Commercial Communications
Bus & Motor
SPACEBUS 4000B2, S400
Mass
~3,500 kg wet, ~1,500 kg dry
Launch date (UTC)
2017-05-04 (9 years ago)
Launch vehicle
ARIANE 5ECA
Launch site
French Guiana (FRGUI)
Object type
Payload
Rocket body
Debris
Shape & HBR
Box + 2 Pan, 15.0 m
Radar Cross Section
21.380 m², Large (>1 m²)

Expand to show TLE details & history
Last TLE update: 19 hours ago

TLE from 19 hours ago
0 KOREASAT 7
1 42691U 17023A   25341.26642116 -.00000357  00000-0  00000-0 0  9994
2 42691   0.0238 357.4956 0001782 222.3133  68.2986  1.00272323 31441
Epoch: 2025-12-07T06:23Z
TLE epoch observation values (Epoch: 2025-12-07T06:23:38.788Z)
Latitude
-0.04199°
Longitude
115.92363°
Altitude
35,783.123 km
Speed
3.075 km/s
True Right ascension
19h 12m 28s
True Declination
0° 02' 31"
Sunlit
Object was in daylight at epoch
Visualization orbit readout
Latitude
Unknown
Longitude
Unknown
Altitude
Unknown
Speed
Unknown
Apparent Right ascension
Unknown
Apparent Declination
Unknown
Sunlit
N/A
Visualization observer readout
Local Sidereal Time
23:26:13
Azimuth
Unknown
Elevation
Unknown
Doppler factor
Unknown
Orbital elements
Apogee altitude
35,795.028 km
Perigee altitude
35,780.001 km
Semi-major axis
42,165.652 km
Eccentricity
0.00018
Inclination
0.0238°
RAAN
357.4956°
Arg. of periapsis
222.3133°
True anomaly
68.31757°
Mean anomaly
68.2986°
Eccentric anomaly
68.30809°
Mean motion
0.25067 °/min
Orbital period
1,436.14 mins
BSTAR
0
Loading maneuver chart data...
Computing Atmospheric mass density...
Loading historical data...
Loading historical data...
Loading historical data...
Loading historical data...
Loading historical data...
Loading historical data...
Loading historical data...
Other satellites on launch #23 in the year 2017 (2017-05-04 UTC)

Documentation

Showing up to 5 results
|